Elm City, NC

7:37 PM EST on February 24, 2017 (GMT -0500)
Rocky Mount-Wilson Regional

Weather History for KRWI - October, 2010

Change the Weather History Date:

Wednesday, October 13, 2010

  Actual Average Record
Temperature  
Mean Temperature 70 °F -  
Max Temperature 77 °F 74 °F 88 °F (1954)
Min Temperature 62 °F 48 °F 36 °F (1980)
Cooling Degree Days 4    
Growing Degree Days 20 (Base 50)    
Moisture  
Dew Point 57 °F    
Average Humidity 69    
Maximum Humidity 94    
Minimum Humidity 52    
Precipitation  
Precipitation 0.00 in - - ()
Sea Level Pressure  
Sea Level Pressure 29.94 in    
Wind  
Wind Speed 4 mph (NNE)    
Max Wind Speed 9 mph    
Max Gust Speed -    
Visibility 10 miles    
Events      
Averages and records for this station are not official NWS values.
T = Trace of Precipitation, MM = Missing Value Source: NWS Daily Summary

Daily Weather History Graph

Daily Weather History Graph

Search for Another Location

Airport or City:

Trip Planner

Search our weather history database for the weather conditions in past years. The results will help you decide how hot, cold, wet, or windy it might be!

Date:

Astronomy

Oct. 13, 2010 Rise Set
Actual Time 7:16 AM EDT 6:38 PM EDT
Civil Twilight 6:50 AM EDT 7:04 PM EDT
Nautical Twilight 6:21 AM EDT 7:33 PM EDT
Astronomical Twilight 5:51 AM EDT 8:03 PM EDT
Moon 1:26 PM EDT (10/13) 11:24 PM EDT (10/13)
Length of Visible Light 12h 13m
Length of Day
11h 22m
Waxing Crescent, 38% of the Moon is Illuminated
Oct 13
Waxing Crescent
Oct 14
First Quarter
Oct 22
Full
Oct 30
Last Quarter
Nov 6
New

Hourly Weather History & Observations

Time (EDT) Temp. Dew Point Humidity Pressure Visibility Wind Dir Wind Speed Gust Speed Precip Events Conditions
12:53 AM 64.0 °F 55.0 °F 73% 29.87 in 10.0 mi SW 4.6 mph - N/A   Scattered Clouds
1:53 AM 66.0 °F 54.0 °F 65% 29.87 in 10.0 mi Calm Calm - N/A   Partly Cloudy
2:53 AM 66.0 °F 54.0 °F 65% 29.86 in 10.0 mi Calm Calm - N/A   Clear
3:53 AM 69.1 °F 53.1 °F 57% 29.86 in 10.0 mi NNW 6.9 mph - N/A   Clear
4:53 AM 68.0 °F 54.0 °F 61% 29.88 in 10.0 mi NNW 9.2 mph - N/A   Clear
5:53 AM 66.0 °F 55.0 °F 68% 29.90 in 10.0 mi North 8.1 mph - N/A   Partly Cloudy
6:53 AM 64.9 °F 54.0 °F 68% 29.91 in 10.0 mi North 6.9 mph - N/A   Partly Cloudy
7:53 AM 64.9 °F 54.0 °F 68% 29.93 in 10.0 mi North 4.6 mph - N/A   Scattered Clouds
8:53 AM 64.9 °F 55.9 °F 73% 29.95 in 10.0 mi NNE 4.6 mph - N/A   Scattered Clouds
9:53 AM 68.0 °F 57.0 °F 68% 29.97 in 10.0 mi NNE 6.9 mph - N/A   Clear
10:53 AM 69.1 °F 57.0 °F 65% 29.98 in 10.0 mi North 9.2 mph - N/A   Partly Cloudy
11:53 AM 70.0 °F 57.9 °F 65% 29.98 in 10.0 mi NE 5.8 mph - N/A   Clear
12:53 PM 73.0 °F 57.9 °F 59% 29.97 in 10.0 mi NNE 6.9 mph - N/A   Clear
1:53 PM 75.9 °F 57.9 °F 54% 29.95 in 10.0 mi Variable 3.5 mph - N/A   Clear
2:53 PM 77.0 °F 57.9 °F 52% 29.93 in 10.0 mi Variable 6.9 mph - N/A   Clear
3:53 PM 77.0 °F 57.9 °F 52% 29.93 in 10.0 mi North 6.9 mph - N/A   Clear
4:53 PM 77.0 °F 57.9 °F 52% 29.93 in 10.0 mi NE 4.6 mph - N/A   Clear
5:53 PM 73.9 °F 57.9 °F 57% 29.93 in 10.0 mi Calm Calm - N/A   Clear
6:53 PM 66.9 °F 59.0 °F 76% 29.95 in 10.0 mi Calm Calm - N/A   Clear
7:53 PM 64.0 °F 57.9 °F 80% 29.96 in 10.0 mi Calm Calm - N/A   Clear
8:53 PM 64.9 °F 57.9 °F 78% 29.96 in 10.0 mi Calm Calm - N/A   Clear
9:53 PM 64.0 °F 57.9 °F 80% 29.97 in 10.0 mi NE 4.6 mph - N/A   Clear
10:53 PM 64.0 °F 60.1 °F 87% 29.98 in 9.0 mi East 3.5 mph - N/A   Clear
11:16 PM 62.6 °F 60.8 °F 94% 29.98 in 8.0 mi Calm Calm - N/A   Mostly Cloudy
11:42 PM 62.6 °F 60.8 °F 94% 29.98 in 8.0 mi Calm Calm - N/A   Scattered Clouds
11:53 PM 62.1 °F 60.1 °F 93% 29.97 in 8.0 mi Calm Calm - N/A   Partly Cloudy